Weather History for Sisseton, SD

Change the Weather History Date:

Sunday, October 2, 2011

  Actual Average Record
Temperature  
Mean Temperature 66 °F 52 °F  
Max Temperature 86 °F 65 °F 93 °F (1953)
Min Temperature 46 °F 40 °F 14 °F (1974)
Degree Days  
Heating Degree Days 0 13  
Month to date heating degree days 9 25  
Since 1 July heating degree days 225 270  
Cooling Degree Days 1 0  
Month to date cooling degree days 1 0  
Year to date cooling degree days 624 523  
Growing Degree Days 16 (Base 50)    
Moisture  
Dew Point 39 °F    
Average Humidity 45    
Maximum Humidity 71    
Minimum Humidity 19    
Precipitation  
Precipitation 0.00 in 0.10 in 0.80 in (1941)
Month to date precipitation 0.00 0.20  
Year to date precipitation 19.93 19.48  
Snow  
Snow 0.00 in - - ()
Month to date snowfall 0.0  
Since 1 July snowfall 0.0  
Snow Depth 0.00 in    
Sea Level Pressure  
Sea Level Pressure 29.99 in    
Wind  
Wind Speed 9 mph (South)    
Max Wind Speed 16 mph    
Max Gust Speed 23 mph    
T = Trace of Precipitation, MM = Missing Value Source: NWS Daily Summary

Daily Weather History Graph

Daily Weather History Graph

Search for Another Location

Airport:

Trip Planner

Search our weather history database for the weather conditions in past years. The results will help you decide how hot, cold, wet, or windy it might be!

Date:

Astronomy

Oct. 02, 2011 Rise Set
Actual Time 7:27 AM CDT 7:06 PM CDT
Civil Twilight 6:57 AM CDT 7:36 PM CDT
Nautical Twilight 6:23 AM CDT 8:10 PM CDT
Astronomical Twilight 5:48 AM CDT 8:45 PM CDT
Moon 1:52 PM CDT (10/2) 10:49 PM CDT (10/2)
Length of Visible Light 12h 38m
Length of Day
11h 39m
Waxing Crescent, 35% of the Moon is Illuminated
Oct 2
Waxing Crescent
Oct 3
First Quarter
Oct 11
Full
Oct 19
Last Quarter
Oct 26
New

Hourly Weather History & Observations

Time (CDT) Temp. Dew Point Humidity Pressure Visibility Wind Dir Wind Speed Gust Speed Precip Events Conditions
12:56 AM 55.9 °F 37.0 °F 49% 30.01 in - South 9.2 mph - N/A   Unknown
1:56 AM 55.9 °F 37.0 °F 49% 30.00 in - SSE 10.4 mph - N/A   Unknown
2:56 AM 60.1 °F 37.0 °F 42% 29.99 in - South 8.1 mph - N/A   Unknown
3:56 AM 59.0 °F 37.0 °F 44% 29.99 in - SSE 8.1 mph - N/A   Unknown
4:56 AM 61.0 °F 36.0 °F 39% 29.99 in - South 11.5 mph 17.3 mph N/A   Unknown
5:56 AM 60.1 °F 36.0 °F 41% 30.00 in - South 12.7 mph - N/A   Unknown
6:56 AM 46.9 °F 37.0 °F 68% 30.03 in - SE 6.9 mph - N/A   Unknown
7:56 AM 48.0 °F 37.9 °F 68% 30.04 in - SE 6.9 mph - N/A   Unknown
8:56 AM 53.1 °F 39.0 °F 59% 30.04 in - SE 4.6 mph - N/A   Unknown
9:56 AM 63.0 °F 39.9 °F 43% 30.02 in - South 6.9 mph - N/A   Unknown
10:56 AM 70.0 °F 39.0 °F 32% 30.01 in - South 6.9 mph - N/A   Unknown
11:56 AM 75.0 °F 41.0 °F 29% 30.01 in - South 6.9 mph - N/A   Unknown
12:56 PM 78.1 °F 41.0 °F 27% 29.99 in - South 8.1 mph - N/A   Unknown
1:56 PM 82.0 °F 41.0 °F 23% 29.97 in - South 10.4 mph 17.3 mph N/A   Unknown
2:56 PM 84.9 °F 37.9 °F 19% 29.94 in - SW 15.0 mph 23.0 mph N/A   Unknown
3:56 PM 86.0 °F 39.0 °F 19% 29.94 in - SSW 13.8 mph 19.6 mph N/A   Unknown
4:56 PM 84.9 °F 39.0 °F 20% 29.93 in - SSW 12.7 mph - N/A   Unknown
5:56 PM 82.0 °F 39.9 °F 22% 29.94 in - South 10.4 mph - N/A   Unknown
6:56 PM 73.9 °F 39.9 °F 29% 29.97 in - South 6.9 mph - N/A   Unknown
7:56 PM 64.9 °F 42.1 °F 43% 29.99 in - SSW 8.1 mph - N/A   Unknown
8:56 PM 60.1 °F 41.0 °F 49% 30.00 in - SSW 5.8 mph - N/A   Unknown
9:56 PM 60.1 °F 41.0 °F 49% 29.99 in - South 6.9 mph - N/A   Unknown
10:56 PM 53.1 °F 41.0 °F 64% 30.00 in - SSE 4.6 mph - N/A   Unknown
11:56 PM 55.9 °F 41.0 °F 57% 29.99 in - SSE 6.9 mph - N/A   Unknown